User: anonymous   Login
Location: Unspecified
(0.0000°N, 0.0000°E)
Time: 09:36:53
(UTC+00:00)
Language:

Kiku-3 - Orbit

View from above orbital plane
View from above orbital plane
View from above satellite
View from above satellite

Ground track
Ground track

The orbit data is extracted from the following two-line orbital elements,

1 12295U 81012A   17295.78328976 +.00005983 +00000-0 +80407-3 0  9992
2 12295 028.4112 138.1847 5048904 046.6907 345.7673 05.55516030460581
Epoch (UTC): 22 October 2017 18:47:56
Eccentricity: 0.5048904
inclination: 28.4112°
perigee height: 289 km
apogee height: 13888 km
right ascension of ascending node: 138.1847°
argument of perigee: 46.6907°
revolutions per day: 5.55516030
mean anomaly at epoch: 345.7673°
orbit number at epoch: 46058

The dashed part of the orbit path shows where the satellite is in the earth's shadow,  

DLR